Location: Nairn
(57.5833°N, 3.8667°W)
Time: 15:38:01
(UTC+00:00)

Transit 2A - Visible Passes

Search period start: 26 November 2020 00:00
Search period end: 06 December 2020 00:00
Orbit: 594 x 964 km, 66.7° (Epoch: 26 November)

Date Brightness Start Highest point End Pass type
(mag) Time Alt. Az. Time Alt. Az. Time Alt. Az.
26 Nov 7.8 17:11:44 10° SSE 17:15:56 19° ESE 17:18:19 15° E visible
26 Nov 6.2 18:52:09 10° SSW 18:58:20 65° SE 18:58:50 62° ESE visible
26 Nov 7.8 20:35:51 10° WSW 20:39:21 32° W 20:39:21 32° W visible
27 Nov 8.1 16:38:54 10° SE 16:42:04 14° ESE 16:45:09 10° ENE visible
27 Nov 6.5 18:18:11 10° SSW 18:24:15 52° SE 18:25:55 40° ENE visible
27 Nov 7.0 20:01:26 10° WSW 20:06:26 51° WNW 20:06:26 51° WNW visible
27 Nov 9.0 21:46:19 10° WNW 21:46:56 13° WNW 21:46:56 13° WNW visible
28 Nov 6.8 17:44:22 10° S 17:50:10 41° ESE 17:52:56 26° ENE visible
28 Nov 6.4 19:27:05 10° WSW 19:33:17 70° NW 19:33:26 70° NNW visible
28 Nov 8.5 21:11:48 10° W 21:13:56 20° WNW 21:13:56 20° WNW visible
29 Nov 7.2 17:10:41 10° S 17:16:09 33° ESE 17:19:54 17° ENE visible
29 Nov 6.3 18:52:48 10° SW 18:59:04 83° NW 19:00:24 56° NE visible
29 Nov 7.9 20:37:17 10° W 20:40:54 30° WNW 20:40:54 30° WNW visible
30 Nov 7.5 16:37:11 10° SSE 16:42:10 26° ESE 16:46:49 10° ENE visible
30 Nov 6.2 18:18:37 10° SW 18:24:52 82° SE 18:27:19 37° NE visible
30 Nov 7.3 20:02:47 10° W 20:07:48 42° NW 20:07:48 42° NW visible
30 Nov 9.0 21:47:45 10° WNW 21:48:18 12° WNW 21:48:18 12° WNW visible
01 Dec 6.3 17:44:31 10° SSW 17:50:43 67° SE 17:54:11 25° NE visible
01 Dec 6.8 19:28:19 10° WSW 19:34:16 50° NNW 19:34:41 49° NNW visible
01 Dec 8.6 21:13:17 10° WNW 21:15:10 19° NW 21:15:10 19° NW visible
02 Dec 6.6 17:10:32 10° SSW 17:16:35 54° SE 17:21:02 17° NE visible
02 Dec 6.7 18:53:53 10° WSW 18:59:57 57° NNW 19:01:31 44° NNE visible
02 Dec 8.1 20:38:47 10° WNW 20:42:01 26° NW 20:42:01 26° NW visible
03 Dec 6.9 16:36:41 10° S 16:42:31 43° ESE 16:47:50 11° NE visible
03 Dec 6.5 18:19:31 10° WSW 18:25:40 68° NW 18:28:19 33° NE visible
03 Dec 7.6 20:04:16 10° W 20:08:49 34° NW 20:08:49 34° NW visible
03 Dec 9.1 21:49:02 10° NW 21:49:18 11° NW 21:49:18 11° NW visible
04 Dec 6.3 17:45:13 10° SW 17:51:25 80° NW 17:55:07 23° NE visible
04 Dec 7.1 19:29:45 10° W 19:35:21 39° NNW 19:35:36 38° NNW visible
04 Dec 8.7 21:14:38 10° WNW 21:16:05 17° NW 21:16:05 17° NW visible
05 Dec 6.3 17:11:01 10° SW 17:17:13 85° SE 17:21:52 16° NE visible
05 Dec 7.0 18:55:15 10° W 19:00:58 43° NNW 19:02:22 36° NNE visible
05 Dec 8.2 20:40:13 10° WNW 20:42:50 23° NW 20:42:50 23° NW visible
